Regional Weather Roundup
Issued by NWS

Home | Current Version | Previous Version | Text Only | Print | Product List | Glossary On
Versions: 1 2 3 4 5 6 7 8 9 10 11 12 13 14 15 16 17 18 19 20 21 22 23 24 25 26 27 28 29 30 31 32 33 34 35 36 37 38 39 40 41 42 43 44 45 46 47 48 49 50
000
ASCA44 KEWX 271120
RWRMX

LATIN AMERICA AND CARIBBEAN REGIONAL WEATHER ROUNDUP
NATIONAL WEATHER SERVICE AUSTIN/SAN ANTONIO TX
600 AM CDT MON MAR 27 2017

NOTE: "FAIR" INDICATED FEW OR NO CLOUDS BELOW 12,000 FEET WITH NO
SIGNIFICANT WEATHER AND/OR OBSTRUCTIONS TO VISIBILITY.

BAJA CALIFORNIA

CITY           SKY/WX    TMP DP  RH WIND       PRES   REMARKS
S.J. DEL CABO    N/A    N/A N/A N/A MISG        N/A
TIJUANA        CLOUDY    55  50  82 CALM      30.04F

NORTHWESTERN MEXICO

CITY           SKY/WX    TMP DP  RH WIND       PRES   REMARKS
DURANGO        CLEAR     50  32  50 S8        30.16  WCI  47
HERMOSILLO     CLEAR     61  45  55 CALM      29.91F

NORTHEASTERN MEXICO

CITY           SKY/WX    TMP DP  RH WIND       PRES   REMARKS
MONCLOVA       CLEAR     70  43  37 SW6       29.85
MONTERREY      PTCLDY    66  63  88 W6        29.77S
REYNOSA          N/A    N/A N/A N/A MISG        N/A
TORREON        CLEAR     66  27  22 NW5       29.97
CD. VICTORIA     N/A    N/A N/A N/A MISG        N/A

WESTERN MEXICO

CITY           SKY/WX    TMP DP  RH WIND       PRES   REMARKS
AGUASCALIENTES CLEAR     52  41  66 SE7       30.16F
COLIMA           N/A    N/A N/A N/A MISG        N/A
DEL BAJIO      CLEAR     50  45  81 N5        30.21S WCI  48
GUADALAJARA    CLEAR     54  43  66 CALM      30.11S
MAZATLAN       CLEAR     57  57 100 NE5       29.93S
P. VALLARTA    CLEAR     66  66 100 CALM      29.88S
URUAPAN          N/A    N/A N/A N/A MISG        N/A
ZACATECAS      CLEAR     41  14  33 S5        30.19S WCI  38

CENTRAL MEXICO

CITY           SKY/WX    TMP DP  RH WIND       PRES   REMARKS
CUERNAVACA       N/A    N/A N/A N/A MISG        N/A
MEXICO CITY    CLEAR     54  45  71 SW5       30.26S
MORELIA        CLEAR     45  45 100 CALM      30.17S
POZA RICA        N/A    N/A N/A N/A MISG        N/A
PUEBLA         CLEAR     45  41  87 NW2       30.23
QUERETARO      PTCLDY    46  46 100 NE5       30.22S WCI  44
S. LUIS POTOSI CLEAR     54  37  54 CALM      30.12R
TOLUCA         CLEAR     41  37  87 CALM      30.33F

SOUTHERN MEXICO

CITY           SKY/WX    TMP DP  RH WIND       PRES   REMARKS
ACAPULCO       PTCLDY    79  73  83 MISG      29.85
B. DE HUATULCO   N/A    N/A N/A N/A MISG        N/A
P. ESCONDIDO     N/A    N/A N/A N/A MISG        N/A
VERACRUZ         N/A    N/A N/A N/A MISG        N/A

YUCATAN PENINSULA

CITY           SKY/WX    TMP DP  RH WIND       PRES   REMARKS
CAMPECHE         N/A    N/A N/A N/A MISG        N/A
CANCUN         PTCLDY    75  70  83 E7        29.94R
CHETUMAL       MOCLDY    75  68  78 SE12      29.91
CD. DEL CARMEN   N/A    N/A N/A N/A MISG        N/A
COZUMEL          N/A    N/A N/A N/A MISG        N/A
MERIDA         CLEAR     70  66  88 SE7       29.90R
MINATITLAN     CLOUDY    73  72  94 CALM      29.77  FOG
TAPACHULA      PTCLDY    73  70  88 CALM      29.84S

CENTRAL AMERICA

CITY           SKY/WX    TMP DP  RH WIND       PRES   REMARKS
BELIZE CITY    PTCLDY    73  70  88 E5        29.90
MANAGUA          N/A     73  66  78 E5        29.86R

CARIBBEAN

CITY           SKY/WX    TMP DP  RH WIND       PRES   REMARKS
ARUBA          PTCLDY    81  73  78 E8        29.86S
CURACAO        PTCLDY    79  73  83 E8        29.89S
NASSAU         PTCLDY    73  66  78 NE7       30.02R
SAN JUAN       PTCLDY    75  73  94 S3        29.91R
SANTO DOMINGO  PTCLDY    72  70  94 N5        29.89R
ST. CROIX      PTCLDY    79  72  78 SE6       29.93
ST. KITTS      MOSUNNY   77  73  88 SE5       29.94R
ST. MAARTEN    MOSUNNY   79  75  89 SE7       29.94R
ST. THOMAS     CLEAR     77  73  88 SE12      29.91

$$




USA.gov is the U.S. government's official web portal to all federal, state and local government web resources and services.